OneWeb SL0316

operational
NORAD ID: 49102 Int'l Des: 2021-075 Owner: ONEWEBN Country: UK Constellation: oneweb
LEOCIRCULARPOLARONEWEB_TYPE

OneWeb SL0316について

説明を読み込み中...

リアルタイム位置

3D地球を読み込み中...

次回通過

高度履歴

Altitude vs Time

uPlot chart will show altitude changes over time

軌道要素

1 49102U 21075AD 26062.31114584 .00000092 00000-0 20150-3 0 9996
2 49102 87.9241 356.4878 0001795 76.6265 283.5067 13.18684137223251
Epoch: Mar 3, 2026 • Age: 21 hours

現在のステータス

高度 1197.6 km
速度 7.26 km/s
衛星直下点 53.02°N, 59.14°E
打ち上げ日 Aug 21, 2021
運用期間 4.5 years
タイプ internet

技術仕様

分類 Payload
質量 148.00 kg
乾燥質量 140.00 kg
総質量 148.00 kg
長さ 1.30 m
直径 1.00 m
スパン 5.00 m
形状 Trapezoid+2 pan
製造者 ONEWUS
バスタイプ ARROW
フェーズステータス In Orbit
所有者/国 ONEWEBN/UK

大規模コンステレーション

Loading constellations...